Weather History for Alesund, Norway

Change the Weather History Date:

Tuesday, February 19, 2013

  Actual Average Record
Temperature  
Mean Temperature 38 °F -  
Max Temperature 42 °F 39 °F 46 °F (1998)
Min Temperature 33 °F 33 °F 26 °F (2014)
Degree Days  
Heating Degree Days 28    
Moisture  
Dew Point 33 °F    
Average Humidity 85    
Maximum Humidity 93    
Minimum Humidity 59    
Precipitation  
Precipitation 0.00 in - - ()
Sea Level Pressure  
Sea Level Pressure 30.18 in    
Wind  
Wind Speed 11 mph ()    
Max Wind Speed 18 mph    
Max Gust Speed -    
Visibility 6.2 miles    
Events      
Averages and records for this station are not official NWS values.
T = Trace of Precipitation, MM = Missing Value Source: Averaged Metar Reports

Daily Weather History Graph

Daily Weather History Graph

Search for Another Location

Airport:

Trip Planner

Search our weather history database for the weather conditions in past years. The results will help you decide how hot, cold, wet, or windy it might be!

Date:

Astronomy

Feb. 19, 2013 Rise Set
Actual Time 8:11 AM CET 5:28 PM CET
Civil Twilight 7:23 AM CET 6:16 PM CET
Nautical Twilight 6:31 AM CET 7:08 PM CET
Astronomical Twilight 5:39 AM CET 8:01 PM CET
Moon 10:40 AM CET (2/19) 4:35 AM CET (2/19)
Length of Visible Light 10h 52m
Length of Day
9h 17m
Waxing Gibbous, 65% of the Moon is Illuminated
Feb 19
Waxing Gibbous
Feb 25
Full
Mar 4
Last Quarter
Mar 11
New
Mar 19
First Quarter

Hourly Weather History & Observations

Time (CET) Temp. Windchill Dew Point Humidity Pressure Visibility Wind Dir Wind Speed Gust Speed Precip Events Conditions
12:20 AM 37.4 °F 28.9 °F 35.6 °F 93% 30.04 in 6.2 mi NE 13.8 mph - N/A   Partly Cloudy
12:50 AM 37.4 °F 28.2 °F 35.6 °F 93% 30.04 in 6.2 mi NE 16.1 mph - N/A   Unknown
1:00 AM 37 °F - 35 °F 87% 30.06 in - NE 15.7 mph - -  
1:20 AM 37.4 °F 28.2 °F 35.6 °F 93% 30.04 in 6.2 mi NE 16.1 mph - N/A   Unknown
1:50 AM 35.6 °F 26.2 °F 33.8 °F 93% 30.04 in 6.2 mi NE 15.0 mph - N/A   Unknown
2:20 AM 37.4 °F 28.2 °F 33.8 °F 87% 30.04 in 6.2 mi NE 16.1 mph - N/A   Unknown
2:50 AM 35.6 °F 25.5 °F 33.8 °F 93% 30.06 in 6.2 mi ENE 17.3 mph - N/A   Unknown
3:20 AM 35.6 °F 25.2 °F 33.8 °F 93% 30.06 in 6.2 mi ENE 18.4 mph - N/A   Unknown
3:50 AM 35.6 °F 25.9 °F 33.8 °F 93% 30.06 in 6.2 mi ENE 16.1 mph - N/A   Unknown
4:20 AM 35.6 °F 25.5 °F 33.8 °F 93% 30.06 in 6.2 mi ENE 17.3 mph - N/A   Unknown
4:50 AM 35.6 °F 25.5 °F 33.8 °F 93% 30.06 in 6.2 mi NE 17.3 mph - N/A   Unknown
5:20 AM 35.6 °F 25.5 °F 33.8 °F 93% 30.09 in 6.2 mi ENE 17.3 mph - N/A   Unknown
5:50 AM 35.6 °F 25.9 °F 33.8 °F 93% 30.09 in 6.2 mi ENE 16.1 mph - N/A   Unknown
6:20 AM 35.6 °F 26.2 °F 32.0 °F 87% 30.09 in 6.2 mi ENE 15.0 mph - N/A   Partly Cloudy
6:50 AM 35.6 °F 25.5 °F 33.8 °F 93% 30.09 in 6.2 mi NE 17.3 mph - N/A   Partly Cloudy
7:00 AM 36 °F - 33 °F 85% 30.12 in 47 mi NE 17.9 mph - -   Partly Cloudy
7:20 AM 35.6 °F 25.5 °F 32.0 °F 87% 30.09 in - ENE 17.3 mph - N/A   Clear
7:50 AM 35.6 °F 25.2 °F 32.0 °F 87% 30.12 in - NE 18.4 mph - N/A   Clear
8:20 AM 33.8 °F 26.4 °F 32.0 °F 93% 30.12 in - ENE 9.2 mph - N/A   Clear
8:50 AM 35.6 °F 27.5 °F 32.0 °F 87% 30.12 in 6.2 mi NE 11.5 mph - N/A   Partly Cloudy
9:20 AM 35.6 °F - 32.0 °F 87% 30.15 in 6.2 mi Variable 1.2 mph - N/A   Partly Cloudy
9:50 AM 37.4 °F 34.9 °F 32.0 °F 81% 30.15 in 6.2 mi WSW 3.5 mph - N/A   Partly Cloudy
10:20 AM 37.4 °F - 32.0 °F 81% 30.15 in 6.2 mi Variable 2.3 mph - N/A   Partly Cloudy
10:50 AM 39.2 °F 35.9 °F 33.8 °F 81% 30.15 in 6.2 mi ENE 4.6 mph - N/A   Partly Cloudy
11:20 AM 39.2 °F 37.0 °F 33.8 °F 81% 30.18 in 6.2 mi WSW 3.5 mph - N/A   Partly Cloudy
11:50 AM 42.8 °F 41.1 °F 32.0 °F 66% 30.18 in - ESE 3.5 mph - N/A   Clear
12:20 PM 42.8 °F 40.1 °F 32.0 °F 66% 30.18 in - South 4.6 mph - N/A   Clear
12:50 PM 39.2 °F 37.0 °F 30.2 °F 70% 30.21 in - ENE 3.5 mph - N/A   Clear
1:00 PM 39 °F - 30 °F 59% 30.22 in 47 mi ENE 4.5 mph - -   Partly Cloudy
1:20 PM 39.2 °F 34.2 °F 32.0 °F 75% 30.21 in - ENE 6.9 mph - N/A   Clear
1:50 PM 39.2 °F 35.0 °F 32.0 °F 75% 30.21 in - ENE 5.8 mph - N/A   Clear
2:20 PM 41.0 °F 39.0 °F 32.0 °F 70% 30.21 in - ENE 3.5 mph - N/A   Clear
2:50 PM 39.2 °F - 32.0 °F 75% 30.21 in - Variable 1.2 mph - N/A   Clear
3:20 PM 39.2 °F 33.0 °F 33.8 °F 81% 30.24 in 6.2 mi SW 9.2 mph - N/A   Scattered Clouds
3:50 PM 37.4 °F 31.4 °F 33.8 °F 87% 30.24 in 6.2 mi SW 8.1 mph - N/A   Mostly Cloudy
4:20 PM 37.4 °F 33.8 °F 35.6 °F 93% 30.24 in 6.2 mi SW 4.6 mph - N/A   Mostly Cloudy
4:50 PM 37.4 °F 34.9 °F 35.6 °F 93% 30.24 in 6.2 mi South 3.5 mph - N/A   Mostly Cloudy
5:20 PM 39.2 °F 37.0 °F 35.6 °F 87% 30.27 in 6.2 mi South 3.5 mph - N/A   Mostly Cloudy
5:50 PM 37.4 °F 34.9 °F 33.8 °F 87% 30.27 in 6.2 mi South 3.5 mph - N/A   Mostly Cloudy
6:20 PM 35.6 °F 31.7 °F 33.8 °F 93% 30.27 in 6.2 mi South 4.6 mph - N/A   Mostly Cloudy
6:50 PM 35.6 °F 31.7 °F 33.8 °F 93% 30.27 in 6.2 mi SE 4.6 mph - N/A   Mostly Cloudy
7:00 PM 36 °F - 34 °F 90% 30.30 in 40 mi SSE 6.7 mph - -   Partly Cloudy
7:20 PM 35.6 °F 29.9 °F 33.8 °F 93% 30.30 in 6.2 mi SSE 6.9 mph - N/A   Scattered Clouds
7:50 PM 35.6 °F 29.9 °F 33.8 °F 93% 30.30 in 6.2 mi SSE 6.9 mph - N/A   Scattered Clouds
8:20 PM 35.6 °F 28.0 °F 33.8 °F 93% 30.30 in 6.2 mi SE 10.4 mph - N/A   Scattered Clouds
8:50 PM 35.6 °F 28.0 °F 32.0 °F 87% 30.30 in 6.2 mi SE 10.4 mph - N/A   Scattered Clouds
9:20 PM 35.6 °F 29.2 °F 32.0 °F 87% 30.33 in 6.2 mi SSE 8.1 mph - N/A   Scattered Clouds
9:50 PM 35.6 °F 28.6 °F 30.2 °F 81% 30.33 in 6.2 mi SSE 9.2 mph - N/A   Scattered Clouds
10:20 PM 35.6 °F 28.6 °F 28.4 °F 75% 30.33 in 6.2 mi SSE 9.2 mph - N/A   Scattered Clouds
10:50 PM 35.6 °F 28.0 °F 28.4 °F 75% 30.33 in 6.2 mi SSE 10.4 mph - N/A   Mostly Cloudy
11:20 PM 35.6 °F 28.0 °F 28.4 °F 75% 30.36 in 6.2 mi SE 10.4 mph - N/A   Overcast
11:50 PM 35.6 °F 28.0 °F 28.4 °F 75% 30.36 in 6.2 mi SSE 10.4 mph - N/A   Overcast